JAL527 RJTT-RJCC

Flight info

Callsign JAL527
Flight time 1h 8m
Altitude 39000
Route BRUCE AGRIS Y11 SAMBO Y119 OHMAR Y13 SIRAO Y139 NAVER
Aircraft A359/H-SDE2E3GHIJ1J3J4J5LM1ORWXYZ/LB1D1

Departure

Time 2026-05-08 10:50
Airport Tokyo Haneda International Airport (RJTT)

Arrival

Time 2026-05-08 11:58
Airport New Chitose Airport (RJCC)
Time Latitude Longitude Altitude Speed Heading
2026-05-08 10:27 35.54782 139.78265 30 ft 0 kts 54°
2026-05-08 10:33 35.54777 139.78258 30 ft 2 kts 54°
2026-05-08 10:33 35.54766 139.78238 29 ft 3 kts 54°
2026-05-08 10:33 35.54754 139.78220 28 ft 3 kts 58°
2026-05-08 10:33 35.54747 139.78203 29 ft 3 kts 85°
2026-05-08 10:34 35.54746 139.78188 27 ft 4 kts 120°
2026-05-08 10:34 35.54756 139.78172 27 ft 4 kts 144°
2026-05-08 10:34 35.54771 139.78160 27 ft 2 kts 149°
2026-05-08 10:34 35.54773 139.78159 27 ft 4 kts 149°
2026-05-08 10:39 35.54772 139.78159 30 ft 1 kts 149°
2026-05-08 10:39 35.54743 139.78180 30 ft 8 kts 150°
2026-05-08 10:39 35.54689 139.78219 30 ft 10 kts 150°
2026-05-08 10:39 35.54642 139.78252 30 ft 7 kts 151°
2026-05-08 10:40 35.54602 139.78239 29 ft 7 kts 223°
2026-05-08 10:40 35.54593 139.78175 28 ft 8 kts 300°
2026-05-08 10:40 35.54647 139.78122 28 ft 11 kts 328°
2026-05-08 10:40 35.54733 139.78061 28 ft 18 kts 330°
2026-05-08 10:41 35.54853 139.77975 28 ft 21 kts 330°
2026-05-08 10:41 35.54986 139.77880 28 ft 23 kts 329°
2026-05-08 10:41 35.55134 139.77776 28 ft 26 kts 330°
2026-05-08 10:41 35.55294 139.77662 28 ft 28 kts 330°
2026-05-08 10:42 35.55460 139.77544 28 ft 22 kts 330°
2026-05-08 10:42 35.55553 139.77479 29 ft 12 kts 330°
2026-05-08 10:42 35.55608 139.77469 28 ft 9 kts 29°
2026-05-08 10:42 35.55662 139.77512 28 ft 9 kts
2026-05-08 10:43 35.55726 139.77482 28 ft 11 kts 329°
2026-05-08 10:43 35.55804 139.77428 28 ft 14 kts 330°
2026-05-08 10:43 35.55895 139.77363 30 ft 16 kts 330°
2026-05-08 10:43 35.55961 139.77325 32 ft 2 kts
2026-05-08 10:44 35.55965 139.77332 31 ft 1 kts 46°
2026-05-08 10:44 35.55985 139.77399 29 ft 14 kts 68°
2026-05-08 10:44 35.56036 139.77519 29 ft 17 kts 60°
2026-05-08 10:44 35.56100 139.77654 30 ft 19 kts 60°
2026-05-08 10:45 35.56171 139.77807 31 ft 22 kts 60°
2026-05-08 10:45 35.56241 139.77955 32 ft 15 kts 60°
2026-05-08 10:45 35.56292 139.78064 31 ft 14 kts 60°
2026-05-08 10:45 35.56346 139.78176 31 ft 17 kts 60°
2026-05-08 10:46 35.56400 139.78290 31 ft 14 kts 60°
2026-05-08 10:46 35.56442 139.78379 31 ft 10 kts 60°
2026-05-08 10:46 35.56482 139.78463 32 ft 12 kts 60°
2026-05-08 10:46 35.56511 139.78526 32 ft 8 kts 60°
2026-05-08 10:47 35.56540 139.78587 34 ft 8 kts 60°
2026-05-08 10:47 35.56564 139.78641 36 ft 6 kts 66°
2026-05-08 10:47 35.56556 139.78679 36 ft 4 kts 132°
2026-05-08 10:47 35.56541 139.78690 37 ft 0 kts 150°
2026-05-08 10:49 35.56539 139.78691 37 ft 3 kts 150°
2026-05-08 10:49 35.56395 139.78791 35 ft 57 kts 150°
2026-05-08 10:49 35.55834 139.79189 34 ft 126 kts 150°
2026-05-08 10:49 35.54934 139.79862 237 ft 163 kts 152°
2026-05-08 10:50 35.54029 139.80548 1065 ft 145 kts 154°
2026-05-08 10:50 35.53230 139.81299 1805 ft 148 kts 144°
2026-05-08 10:50 35.52564 139.82315 2322 ft 158 kts 136°
2026-05-08 10:50 35.51876 139.83436 2721 ft 175 kts 135°
2026-05-08 10:51 35.51069 139.84686 3055 ft 198 kts 136°
2026-05-08 10:51 35.50307 139.86237 3354 ft 232 kts 114°
2026-05-08 10:51 35.50178 139.88297 3642 ft 261 kts 82°
2026-05-08 10:51 35.50902 139.90412 3936 ft 280 kts 53°
2026-05-08 10:52 35.52379 139.91992 4420 ft 285 kts 25°
2026-05-08 10:52 35.54225 139.92888 5035 ft 286 kts 13°
2026-05-08 10:52 35.56163 139.93600 5699 ft 288 kts 12°
2026-05-08 10:52 35.58092 139.94266 6350 ft 289 kts 12°
2026-05-08 10:53 35.60012 139.94919 6936 ft 292 kts 12°
2026-05-08 10:53 35.61995 139.95503 7495 ft 293 kts
2026-05-08 10:53 35.64028 139.95648 8132 ft 293 kts 356°
2026-05-08 10:53 35.66073 139.95662 8739 ft 295 kts 355°
2026-05-08 10:54 35.68143 139.95655 9373 ft 298 kts 355°
2026-05-08 10:54 35.70258 139.95636 9957 ft 302 kts 354°
2026-05-08 10:54 35.72385 139.95608 10370 ft 311 kts 354°
2026-05-08 10:54 35.74572 139.95574 10634 ft 325 kts 354°
2026-05-08 10:55 35.76914 139.95537 10899 ft 339 kts 355°
2026-05-08 10:55 35.79287 139.95501 11164 ft 351 kts 355°
2026-05-08 10:55 35.81752 139.95464 11511 ft 359 kts 355°
2026-05-08 10:55 35.84269 139.95429 11956 ft 363 kts 355°
2026-05-08 10:56 35.86803 139.95392 12411 ft 367 kts 355°
2026-05-08 10:56 35.89375 139.95354 12867 ft 370 kts 355°
2026-05-08 10:56 35.91962 139.95316 13345 ft 373 kts 355°
2026-05-08 10:56 35.94566 139.95277 13771 ft 375 kts 355°
2026-05-08 10:57 35.96899 139.95241 14132 ft 377 kts 355°
2026-05-08 10:57 35.99545 139.95201 14560 ft 380 kts 355°
2026-05-08 10:57 36.04867 139.95119 15394 ft 384 kts 355°
2026-05-08 10:58 36.07544 139.95078 15817 ft 386 kts 355°
2026-05-08 10:58 36.10240 139.95036 16234 ft 388 kts 355°
2026-05-08 10:58 36.12946 139.94997 16646 ft 390 kts 355°
2026-05-08 10:58 36.15680 139.95186 17054 ft 396 kts
2026-05-08 10:59 36.18420 139.95645 17444 ft 399 kts
2026-05-08 10:59 36.21171 139.96261 17850 ft 403 kts
2026-05-08 10:59 36.23888 139.96941 18208 ft 405 kts
2026-05-08 10:59 36.26662 139.97643 18541 ft 408 kts
2026-05-08 11:00 36.29450 139.98338 18865 ft 410 kts
2026-05-08 11:00 36.32263 139.99024 19210 ft 412 kts
2026-05-08 11:00 36.35083 139.99701 19547 ft 414 kts
2026-05-08 11:00 36.37928 140.00374 19891 ft 417 kts
2026-05-08 11:01 36.40791 140.01049 20217 ft 419 kts
2026-05-08 11:01 36.43659 140.01730 20549 ft 421 kts
2026-05-08 11:01 36.46542 140.02412 20901 ft 423 kts
2026-05-08 11:01 36.49445 140.03095 21205 ft 426 kts
2026-05-08 11:02 36.52359 140.03780 21528 ft 428 kts
2026-05-08 11:02 36.58238 140.05168 22175 ft 432 kts
2026-05-08 11:02 36.61195 140.05868 22498 ft 434 kts
2026-05-08 11:03 36.63168 140.06336 22703 ft 436 kts
2026-05-08 11:03 36.67129 140.07278 23115 ft 438 kts
2026-05-08 11:03 36.70129 140.07991 23402 ft 441 kts
2026-05-08 11:03 36.72168 140.08476 23566 ft 442 kts
2026-05-08 11:04 36.76185 140.09433 23849 ft 446 kts
2026-05-08 11:04 36.78258 140.09924 24025 ft 448 kts
2026-05-08 11:04 36.81327 140.10651 24279 ft 449 kts
2026-05-08 11:04 36.84409 140.11386 24514 ft 452 kts
2026-05-08 11:05 36.87464 140.12122 24758 ft 454 kts
2026-05-08 11:05 36.90577 140.12872 24996 ft 457 kts
2026-05-08 11:05 36.93701 140.13620 25226 ft 459 kts
2026-05-08 11:05 36.96849 140.14373 25478 ft 461 kts
2026-05-08 11:06 37.00008 140.15128 25733 ft 463 kts
2026-05-08 11:06 37.03185 140.15891 25967 ft 466 kts
2026-05-08 11:06 37.06381 140.16661 26219 ft 469 kts
2026-05-08 11:06 37.09585 140.17429 26475 ft 471 kts
2026-05-08 11:07 37.12810 140.18202 26727 ft 473 kts
2026-05-08 11:07 37.16063 140.18983 26971 ft 476 kts
2026-05-08 11:07 37.19320 140.19766 27240 ft 478 kts
2026-05-08 11:07 37.22596 140.20554 27510 ft 481 kts
2026-05-08 11:08 37.25890 140.21348 27799 ft 483 kts
2026-05-08 11:08 37.29212 140.22150 28060 ft 487 kts
2026-05-08 11:08 37.32540 140.22954 28340 ft 489 kts
2026-05-08 11:08 37.35897 140.23767 28630 ft 492 kts
2026-05-08 11:09 37.39261 140.24581 28924 ft 494 kts
2026-05-08 11:09 37.42643 140.25401 29179 ft 498 kts
2026-05-08 11:09 37.46060 140.26231 29451 ft 500 kts
2026-05-08 11:09 37.49493 140.27065 29751 ft 503 kts
2026-05-08 11:10 37.52936 140.27906 30034 ft 505 kts
2026-05-08 11:10 37.56402 140.28754 30313 ft 508 kts
2026-05-08 11:10 37.59878 140.29601 30601 ft 509 kts
2026-05-08 11:10 37.63364 140.30450 30891 ft 511 kts
2026-05-08 11:11 37.66857 140.31302 31183 ft 513 kts
2026-05-08 11:11 37.70370 140.32158 31441 ft 516 kts
2026-05-08 11:11 37.73858 140.33009 31715 ft 518 kts
2026-05-08 11:11 37.77411 140.33877 31993 ft 520 kts
2026-05-08 11:12 37.80974 140.34749 32251 ft 523 kts
2026-05-08 11:12 37.84548 140.35624 32513 ft 525 kts
2026-05-08 11:12 37.88144 140.36505 32798 ft 527 kts
2026-05-08 11:12 37.91745 140.37389 33076 ft 529 kts
2026-05-08 11:13 37.95371 140.38281 33355 ft 531 kts
2026-05-08 11:13 37.99005 140.39174 33589 ft 533 kts
2026-05-08 11:13 38.02661 140.40074 33834 ft 535 kts
2026-05-08 11:13 38.06325 140.40977 34047 ft 537 kts
2026-05-08 11:14 38.10005 140.41886 34339 ft 538 kts
2026-05-08 11:14 38.13672 140.42794 34643 ft 538 kts
2026-05-08 11:14 38.17351 140.43705 34964 ft 537 kts
2026-05-08 11:14 38.21019 140.44615 35265 ft 537 kts
2026-05-08 11:15 38.24681 140.45524 35606 ft 537 kts
2026-05-08 11:15 38.28358 140.46437 35892 ft 538 kts
2026-05-08 11:15 38.32038 140.47351 36211 ft 538 kts
2026-05-08 11:15 38.35712 140.48264 36576 ft 537 kts
2026-05-08 11:16 38.39376 140.49181 36956 ft 536 kts
2026-05-08 11:16 38.43049 140.50100 37281 ft 536 kts
2026-05-08 11:16 38.46705 140.51011 37627 ft 536 kts
2026-05-08 11:16 38.50365 140.51922 37984 ft 535 kts
2026-05-08 11:17 38.53966 140.52822 38361 ft 533 kts
2026-05-08 11:17 38.57617 140.53736 38622 ft 533 kts
2026-05-08 11:17 38.61260 140.54646 38741 ft 535 kts
2026-05-08 11:18 38.68563 140.56475 38756 ft 534 kts
2026-05-08 11:18 38.75868 140.58311 38754 ft 535 kts
2026-05-08 11:19 38.83135 140.60140 38756 ft 535 kts
2026-05-08 11:19 38.90448 140.61987 38753 ft 536 kts
2026-05-08 11:20 38.97760 140.63837 38751 ft 536 kts
2026-05-08 11:20 39.05131 140.65713 38748 ft 537 kts
2026-05-08 11:21 39.12396 140.67559 38751 ft 536 kts
2026-05-08 11:21 39.19728 140.69424 38749 ft 537 kts
2026-05-08 11:22 39.27059 140.71293 38753 ft 537 kts
2026-05-08 11:22 39.34392 140.73166 38743 ft 537 kts
2026-05-08 11:23 39.41725 140.75046 38751 ft 536 kts
2026-05-08 11:23 39.49049 140.76927 38735 ft 537 kts
2026-05-08 11:24 39.56374 140.78811 38747 ft 537 kts
2026-05-08 11:24 39.63698 140.80699 38742 ft 537 kts
2026-05-08 11:25 39.71030 140.82588 38741 ft 537 kts
2026-05-08 11:25 39.74705 140.83545 39021 ft 543 kts
2026-05-08 11:25 39.78450 140.84532 38821 ft 555 kts
2026-05-08 11:26 39.86119 140.86512 38744 ft 567 kts
2026-05-08 11:26 39.93825 140.88511 38730 ft 568 kts
2026-05-08 11:27 40.01573 140.90535 38722 ft 567 kts
2026-05-08 11:27 40.09315 140.92586 38717 ft 568 kts
2026-05-08 11:28 40.17052 140.94800 38714 ft 569 kts
2026-05-08 11:28 40.24776 140.97055 38710 ft 568 kts
2026-05-08 11:29 40.32510 140.99282 38702 ft 568 kts
2026-05-08 11:29 40.40222 141.01491 38695 ft 568 kts
2026-05-08 11:30 40.47958 141.03714 38695 ft 569 kts
2026-05-08 11:30 40.55644 141.05930 38686 ft 568 kts
2026-05-08 11:31 40.63366 141.08164 38687 ft 569 kts
2026-05-08 11:31 40.71102 141.10404 38689 ft 569 kts
2026-05-08 11:32 40.78835 141.12657 38690 ft 569 kts
2026-05-08 11:32 40.82700 141.13781 38395 ft 568 kts
2026-05-08 11:32 40.86573 141.14907 37641 ft 569 kts
2026-05-08 11:32 40.90448 141.16034 36954 ft 570 kts
2026-05-08 11:33 40.94324 141.17165 36286 ft 570 kts
2026-05-08 11:33 40.98205 141.18298 35610 ft 571 kts
2026-05-08 11:33 41.02093 141.19435 34910 ft 573 kts
2026-05-08 11:33 41.05982 141.20573 34155 ft 576 kts
2026-05-08 11:34 41.09910 141.21722 33300 ft 580 kts
2026-05-08 11:34 41.13875 141.22885 32448 ft 583 kts
2026-05-08 11:34 41.17814 141.24046 31886 ft 579 kts
2026-05-08 11:34 41.21686 141.25193 31328 ft 575 kts
2026-05-08 11:35 41.25583 141.26348 30739 ft 572 kts
2026-05-08 11:35 41.29467 141.27497 30142 ft 570 kts
2026-05-08 11:35 41.33336 141.28640 29518 ft 567 kts
2026-05-08 11:35 41.37173 141.29773 28903 ft 563 kts
2026-05-08 11:36 41.40977 141.30897 28332 ft 558 kts
2026-05-08 11:36 41.44755 141.32017 27762 ft 552 kts
2026-05-08 11:36 41.48489 141.33118 27199 ft 548 kts
2026-05-08 11:36 41.52192 141.34217 26646 ft 543 kts
2026-05-08 11:37 41.55861 141.35309 26086 ft 538 kts
2026-05-08 11:37 41.59496 141.36392 25538 ft 533 kts
2026-05-08 11:37 41.63110 141.37471 24980 ft 528 kts 10°
2026-05-08 11:37 41.66683 141.38542 24424 ft 524 kts 11°
2026-05-08 11:38 41.70221 141.39607 23873 ft 519 kts 11°
2026-05-08 11:38 41.73731 141.40657 23331 ft 515 kts 12°
2026-05-08 11:38 41.77222 141.41700 22696 ft 510 kts 12°
2026-05-08 11:38 41.80659 141.42733 22131 ft 504 kts 12°
2026-05-08 11:39 41.84061 141.43758 21581 ft 497 kts 12°
2026-05-08 11:39 41.87414 141.44773 21030 ft 491 kts 12°
2026-05-08 11:39 41.90693 141.45922 20502 ft 485 kts 16°
2026-05-08 11:39 41.93875 141.47386 19977 ft 479 kts 20°
2026-05-08 11:40 41.96970 141.48962 19437 ft 473 kts 20°
2026-05-08 11:40 41.99991 141.50529 18781 ft 471 kts 20°
2026-05-08 11:40 42.03036 141.52134 18126 ft 469 kts 20°
2026-05-08 11:40 42.06064 141.53754 17393 ft 466 kts 20°
2026-05-08 11:41 42.09061 141.55379 16658 ft 463 kts 20°
2026-05-08 11:41 42.12027 141.57007 15930 ft 459 kts 20°
2026-05-08 11:41 42.14962 141.58638 15377 ft 452 kts 20°
2026-05-08 11:41 42.16906 141.59729 15034 ft 446 kts 20°
2026-05-08 11:42 42.19464 141.61176 14599 ft 439 kts 20°
2026-05-08 11:42 42.22251 141.62766 14113 ft 431 kts 20°
2026-05-08 11:42 42.24987 141.64341 13634 ft 424 kts 20°
2026-05-08 11:42 42.27676 141.65900 13161 ft 416 kts 20°
2026-05-08 11:43 42.30305 141.67428 12831 ft 404 kts 20°
2026-05-08 11:43 42.32830 141.68895 12382 ft 397 kts 20°
2026-05-08 11:43 42.35359 141.70357 11871 ft 392 kts 20°
2026-05-08 11:43 42.37856 141.71789 11378 ft 386 kts 20°
2026-05-08 11:44 42.40314 141.73188 10883 ft 381 kts 20°
2026-05-08 11:44 42.42745 141.74562 10468 ft 374 kts 20°
2026-05-08 11:44 42.45106 141.75891 10256 ft 361 kts 20°
2026-05-08 11:44 42.47387 141.77173 10063 ft 348 kts 20°
2026-05-08 11:45 42.49591 141.78409 9870 ft 336 kts 20°
2026-05-08 11:45 42.51721 141.79602 9690 ft 325 kts 20°
2026-05-08 11:45 42.53761 141.80741 9459 ft 316 kts 20°
2026-05-08 11:45 42.55781 141.81868 9094 ft 313 kts 20°
2026-05-08 11:46 42.57784 141.82983 8767 ft 310 kts 20°
2026-05-08 11:46 42.59773 141.84084 8459 ft 308 kts 20°
2026-05-08 11:46 42.61759 141.85179 8146 ft 307 kts 20°
2026-05-08 11:46 42.63791 141.85999 7836 ft 303 kts
2026-05-08 11:47 42.65874 141.85992 7526 ft 297 kts 352°
2026-05-08 11:47 42.67924 141.85718 7237 ft 296 kts 351°
2026-05-08 11:47 42.69966 141.85407 6940 ft 295 kts 350°
2026-05-08 11:47 42.71316 141.85196 6744 ft 294 kts 350°
2026-05-08 11:48 42.73348 141.84873 6452 ft 293 kts 350°
2026-05-08 11:48 42.75365 141.84541 6224 ft 291 kts 350°
2026-05-08 11:48 42.77373 141.84201 6041 ft 291 kts 350°
2026-05-08 11:48 42.79380 141.83848 5964 ft 290 kts 350°
2026-05-08 11:49 42.81375 141.83495 5963 ft 290 kts 350°
2026-05-08 11:49 42.83378 141.83137 5928 ft 291 kts 350°
2026-05-08 11:49 42.85383 141.82777 5657 ft 290 kts 350°
2026-05-08 11:49 42.87379 141.82410 5351 ft 288 kts 350°
2026-05-08 11:50 42.89368 141.82031 5045 ft 287 kts 350°
2026-05-08 11:50 42.91306 141.81654 4727 ft 273 kts 350°
2026-05-08 11:50 42.93131 141.81291 4416 ft 257 kts 350°
2026-05-08 11:50 42.94855 141.80933 4086 ft 244 kts 350°
2026-05-08 11:51 42.96472 141.80542 3817 ft 234 kts 345°
2026-05-08 11:51 42.97875 141.79465 3550 ft 228 kts 310°
2026-05-08 11:51 42.98629 141.77662 3272 ft 218 kts 277°
2026-05-08 11:51 42.98744 141.75634 2984 ft 212 kts 262°
2026-05-08 11:52 42.98676 141.73617 2668 ft 212 kts 260°
2026-05-08 11:52 42.98587 141.71611 2368 ft 212 kts 260°
2026-05-08 11:52 42.98473 141.69596 2068 ft 212 kts 255°
2026-05-08 11:52 42.97895 141.67876 1961 ft 194 kts 220°
2026-05-08 11:53 42.96813 141.66860 1957 ft 187 kts 202°
2026-05-08 11:53 42.95631 141.66137 1943 ft 181 kts 196°
2026-05-08 11:53 42.94479 141.66180 1948 ft 161 kts 163°
2026-05-08 11:53 42.93394 141.66546 1958 ft 161 kts 168°
2026-05-08 11:54 42.92299 141.66802 1991 ft 159 kts 171°
2026-05-08 11:54 42.91198 141.66995 1961 ft 160 kts 171°
2026-05-08 11:54 42.90094 141.67186 1958 ft 160 kts 171°
2026-05-08 11:54 42.89008 141.67378 1945 ft 150 kts 171°
2026-05-08 11:55 42.88020 141.67554 1942 ft 140 kts 171°
2026-05-08 11:55 42.87070 141.67725 1772 ft 133 kts 170°
2026-05-08 11:55 42.86179 141.67884 1587 ft 124 kts 171°
2026-05-08 11:55 42.85345 141.68032 1430 ft 119 kts 172°
2026-05-08 11:56 42.84528 141.68176 1264 ft 118 kts 172°
2026-05-08 11:56 42.83709 141.68322 1090 ft 119 kts 172°
2026-05-08 11:56 42.82872 141.68469 919 ft 123 kts 173°
2026-05-08 11:56 42.82014 141.68622 747 ft 125 kts 173°
2026-05-08 11:57 42.81153 141.68772 579 ft 124 kts 172°
2026-05-08 11:57 42.80299 141.68929 405 ft 125 kts 172°
2026-05-08 11:57 42.79448 141.69072 245 ft 124 kts 171°
2026-05-08 11:57 42.78580 141.69225 105 ft 124 kts 171°
2026-05-08 11:58 42.77824 141.69360 87 ft 79 kts 172°
2026-05-08 11:58 42.77498 141.69417 83 ft 27 kts 174°
2026-05-08 11:58 42.77353 141.69405 82 ft 17 kts 191°
2026-05-08 11:59 42.77182 141.69326 66 ft 12 kts 202°
2026-05-08 11:59 42.77115 141.69289 73 ft 7 kts 202°
2026-05-08 11:59 42.77088 141.69268 84 ft 3 kts 221°
2026-05-08 11:59 42.77079 141.69241 85 ft 3 kts 250°
2026-05-08 12:00 42.77073 141.69195 86 ft 9 kts 262°
2026-05-08 12:00 42.77064 141.69103 84 ft 11 kts 262°
2026-05-08 12:00 42.77058 141.68999 81 ft 10 kts 275°
2026-05-08 12:00 42.77090 141.68917 88 ft 10 kts 317°
2026-05-08 12:01 42.77162 141.68882 87 ft 13 kts 349°
2026-05-08 12:01 42.77259 141.68863 89 ft 15 kts 352°
2026-05-08 12:01 42.77375 141.68842 90 ft 18 kts 352°
2026-05-08 12:01 42.77509 141.68816 90 ft 21 kts 352°
2026-05-08 12:02 42.77659 141.68791 90 ft 23 kts 353°
2026-05-08 12:02 42.77826 141.68763 92 ft 25 kts 353°
2026-05-08 12:02 42.78008 141.68732 94 ft 27 kts 353°
2026-05-08 12:02 42.78203 141.68698 92 ft 27 kts 352°
2026-05-08 12:03 42.78324 141.68675 93 ft 11 kts 348°
2026-05-08 12:03 42.78394 141.68601 94 ft 15 kts 301°
2026-05-08 12:03 42.78458 141.68479 95 ft 17 kts 330°
2026-05-08 12:03 42.78533 141.68443 93 ft 9 kts 326°
2026-05-08 12:04 42.78566 141.68361 95 ft 10 kts 295°
2026-05-08 12:04 42.78596 141.68279 94 ft 5 kts 297°
2026-05-08 12:04 42.78608 141.68248 98 ft 2 kts 296°
2026-05-08 12:04 42.78608 141.68246 96 ft 0 kts 296°